This is the latest recevied weather packets stored in our database for station/object F6BIJ-13. If no packets are shown the sender has not sent any weather packets the latest 10 day(s).
| Time | Temp. | Humidity | Pressure | Rain* | Wind** | Luminosity | Snow |
|---|---|---|---|---|---|---|---|
| 1777953637 | 11.67° C | 97% | 1011.8 hPa | 2.79 mm | - | - | - |
| 1777953277 | 12.22° C | 97% | 1012 hPa | 2.03 mm | - | - | - |
| 1777952918 | 11.11° C | 97% | 1012 hPa | 1.78 mm | - | - | - |
| 1777952557 | 11.67° C | 98% | 1012.1 hPa | 2.54 mm | - | - | - |
| 1777952197 | 11.11° C | 98% | 1012.2 hPa | 2.79 mm | - | - | - |
| 1777951837 | 11.67° C | 97% | 1012.2 hPa | 3.05 mm | - | - | - |
| 1777951477 | 11.67° C | 98% | 1012.2 hPa | 2.79 mm | - | - | - |
| 1777951117 | 11.67° C | 97% | 1012.3 hPa | 2.54 mm | - | - | - |
| 1777950757 | 11.11° C | 97% | 1012.2 hPa | 2.03 mm | - | - | - |
| 1777950397 | 11.11° C | 98% | 1012.2 hPa | 2.03 mm | - | - | - |
| 1777950037 | 11.11° C | 98% | 1012.3 hPa | 2.54 mm | - | - | - |
| 1777949677 | 11.11° C | 97% | 1012.4 hPa | 3.05 mm | - | - | - |
| 1777949317 | 11.67° C | 97% | 1012.3 hPa | 2.79 mm | - | - | - |
| 1777948957 | 11.11° C | 98% | 1012.5 hPa | 2.79 mm | - | - | - |
| 1777948597 | 11.67° C | 98% | 1012.5 hPa | 2.79 mm | - | - | - |
| 1777948237 | 11.67° C | 98% | 1012.7 hPa | 2.79 mm | - | - | - |
| 1777947876 | 11.11° C | 97% | 1012.6 hPa | 2.54 mm | - | - | - |
| 1777947518 | 11.67° C | 97% | 1012.6 hPa | 2.54 mm | - | - | - |
| 1777947157 | 11.67° C | 98% | 1012.5 hPa | 2.79 mm | - | - | - |
| 1777946797 | 11.67° C | 98% | 1012.5 hPa | 2.29 mm | - | - | - |
| 1777946437 | 11.11° C | 98% | 1012.5 hPa | 2.03 mm | - | - | - |
| 1777946077 | 11.11° C | 97% | 1012.6 hPa | 2.29 mm | - | - | - |
| 1777945716 | 11.67° C | 98% | 1012.6 hPa | 2.54 mm | - | - | - |
| 1777945357 | 11.11° C | 97% | 1012.6 hPa | 2.54 mm | - | - | - |
| 1777944997 | 11.67° C | 97% | 1012.5 hPa | 2.54 mm | - | - | - |
* Rain latest 24 hours (hover to see other rain measurements)
** Current wind speed in m/s (hover to see current wind gust speed)